Location: Bidart
(43.4376°N, 1.5913°W)
Time: 11:06:01
(UTC+00:00)

USA 229 DEB - Pass Details

Date: 17 April 2026
Orbit: 844 x 1364 km, 63.4° (Epoch: 10 January)

Event Time Altitude Azimuth Distance (km) Brightness Sun altitude
Rises 23:59:18 0° 324° (NW) 3,922 7.4 -36.1°
Reaches altitude 10° 00:02:11 10° 334° (NNW) 3,042 6.7 -36.1°
Maximum altitude 00:08:49 35° 38° (NE) 1,905 5.2 -36.1°
Enters shadow 00:14:06 17° 93° (E) 2,780 5.8 -36.1°
